Flag for Thailand Weather past 2 weeks in Phuket, Thailand

Now
84 °F

Passing clouds.


Feels Like: 92 °F
Forecast: 84 / 87 °F
Wind: 8 mph from Southwest

Location: Phuket Airport

Current Time: Jul 31, 2014 at 1:51:25 AM

Latest Report: Jul 31, 2014 at 1:00 AM


Visibility: N/A

Pressure: 29.86 "Hg

Humidity: 74%

Dew point: 75 °F

Location of PhuketLocation

Historic Weather in Phuket — Graph

°F

Phuket temperature yesterday

Maximum temperature yesterday: 90 °F (at 12:30 PM)
Minimum temperature yesterday: 82 °F (at 12:30 AM)
Average temperature yesterday: 85 °F

Past Weeks' High & Low Weather Summary

 TemperatureHumidityPressure
High91 °F (Jul 20, 12:00 PM)94% (Jul 16, 2:30 AM)29.92 "Hg (Jul 16, 2:30 AM)
Low75 °F (Jul 16, 2:30 AM)49% (Jul 20, 12:30 PM)29.74 "Hg (Jul 17, 4:00 PM)
Average83 °F76%29.83 "Hg
* Reported Midnight between Jul 15 and Jul 16 — Jul 31 12:30 AM, Phuket, Weather by CustomWeather, © 2014

Note: Actual official high and low records may vary slightly from our data, if they occured in-between our weather recording intervals... More about our weather records

Advertising

Phuket weather history for previous 24 hours

 ConditionsComfort  
Time TempWeatherWind HumidityBarometerVisibility
12:30 AM
Jul 31
84 °FPassing clouds.12 mph74%29.86 "HgN/A
12:00 AM84 °FPassing clouds.7 mph74%29.86 "HgN/A
11:30 PM
Jul 30
84 °FPassing clouds.6 mph74%29.86 "HgN/A
11:00 PM84 °FPassing clouds.6 mph74%29.86 "HgN/A
10:30 PM84 °FPassing clouds.8 mph74%29.86 "HgN/A
10:00 PM84 °FPassing clouds.12 mph74%29.86 "HgN/A
9:30 PM82 °FPassing clouds.6 mph79%29.83 "HgN/A
9:00 PM82 °FPassing clouds.8 mph79%29.83 "HgN/A
8:30 PM84 °FPassing clouds.6 mph70%29.83 "HgN/A
8:00 PM82 °FPartly cloudy.6 mph74%29.83 "Hg6 mi
7:30 PM84 °FPartly cloudy.5 mph70%29.80 "Hg6 mi
7:00 PM84 °FPartly cloudy.8 mph74%29.80 "Hg6 mi
6:30 PM84 °FBroken clouds.9 mph70%29.80 "Hg6 mi
5:30 PM84 °FBroken clouds.7 mph70%29.77 "Hg6 mi
5:00 PM84 °FBroken clouds.7 mph74%29.77 "Hg6 mi
4:30 PM86 °FBroken clouds.10 mph70%29.77 "Hg6 mi
4:00 PM86 °FBroken clouds.9 mph66%29.77 "Hg6 mi
3:30 PM86 °FBroken clouds.14 mph66%29.77 "Hg5 mi
3:00 PM86 °FBroken clouds.15 mph70%29.80 "Hg5 mi
2:30 PM86 °FBroken clouds.14 mph70%29.80 "Hg5 mi
2:00 PM88 °FBroken clouds.14 mph66%29.80 "Hg6 mi
1:30 PM88 °FBroken clouds.12 mph66%29.83 "Hg6 mi
1:00 PM88 °FBroken clouds.12 mph70%29.83 "Hg6 mi
12:30 PM90 °FBroken clouds.15 mph63%29.83 "Hg6 mi
12:00 PM88 °FScattered clouds.15 mph66%29.86 "Hg6 mi
11:30 AM88 °FScattered clouds.12 mph66%29.86 "Hg6 mi
11:00 AM88 °FScattered clouds.12 mph66%29.86 "Hg6 mi
10:30 AM88 °FScattered clouds.13 mph66%29.86 "Hg6 mi
10:00 AM86 °FScattered clouds.12 mph70%29.86 "Hg6 mi
9:30 AM86 °FScattered clouds.15 mph70%29.86 "Hg6 mi
9:00 AM86 °FScattered clouds.13 mph70%29.83 "HgN/A
8:00 AM84 °FScattered clouds.9 mph74%29.83 "Hg6 mi
7:30 AM84 °FPartly sunny.6 mph74%29.83 "Hg6 mi
7:00 AM82 °FPartly sunny.6 mph79%29.80 "Hg5 mi
6:30 AM82 °FPartly sunny.3 mph79%29.80 "Hg5 mi
6:00 AM82 °FPassing clouds.5 mph79%29.80 "Hg5 mi
5:30 AM82 °FPassing clouds.8 mph79%29.80 "Hg5 mi
5:00 AM82 °FPassing clouds.6 mph79%29.80 "Hg5 mi
4:30 AM82 °FPassing clouds.10 mph74%29.80 "Hg5 mi
4:00 AM82 °FPassing clouds.7 mph79%29.80 "Hg5 mi
3:30 AM82 °FPassing clouds.7 mph79%29.80 "Hg5 mi
3:00 AM82 °FPassing clouds.7 mph79%29.80 "Hg5 mi
2:30 AM82 °FPassing clouds.8 mph79%29.80 "Hg6 mi
2:00 AM82 °FPassing clouds.6 mph79%29.83 "Hg6 mi
1:30 AM82 °FPassing clouds.8 mph79%29.83 "Hg6 mi
1:00 AM82 °FPassing clouds.8 mph79%29.83 "Hg6 mi
Weather by CustomWeather, © 2014

See weather overviewHow to use our weather pages